Time,TemperatureF,DewpointF,PressureIn,WindDirection,WindDirectionDegrees,WindSpeedMPH,WindSpeedGustMPH,Humidity,HourlyPrecipIn,Conditions,Clouds,dailyrainin,SoftwareType,DateUTC
2016-07-26 00:04:00,62.0,50.0,-100.00,SE,145,2.0,-999.0,64,-99.99,,,-99.99,,2016-07-26 06:04:00,
2016-07-26 00:23:00,60.0,50.0,-100.00,East,90,2.0,4.0,70,-99.99,,,-99.99,,2016-07-26 06:23:00,
2016-07-26 00:32:00,60.0,50.0,-100.00,East,90,2.0,4.0,70,-99.99,,,-99.99,,2016-07-26 06:32:00,
2016-07-26 00:37:00,59.0,51.0,-100.00,North,-9999,0.0,4.0,74,-99.99,,,-99.99,,2016-07-26 06:37:00,
2016-07-26 00:46:00,59.0,50.0,-100.00,ESE,120,1.0,3.0,74,-99.99,,,-99.99,,2016-07-26 06:46:00,
2016-07-26 01:16:00,56.0,50.0,-100.00,North,-9999,0.0,3.0,79,-99.99,,,-99.99,,2016-07-26 07:16:00,
2016-07-26 01:23:00,56.0,50.0,-100.00,North,-9999,0.0,3.0,79,-99.99,,,-99.99,,2016-07-26 07:23:00,
2016-07-26 01:35:00,56.0,51.0,-100.00,East,95,3.0,4.0,83,-99.99,,,-99.99,,2016-07-26 07:35:00,
2016-07-26 01:44:00,56.0,51.0,-100.00,East,95,3.0,4.0,83,-99.99,,,-99.99,,2016-07-26 07:44:00,
2016-07-26 01:56:00,56.0,50.0,-100.00,ESE,110,2.0,4.0,79,-99.99,,,-99.99,,2016-07-26 07:56:00,
2016-07-26 02:03:00,56.0,50.0,-100.00,ESE,110,2.0,4.0,79,-99.99,,,-99.99,,2016-07-26 08:03:00,
2016-07-26 02:13:00,55.0,49.0,-100.00,North,-9999,0.0,4.0,80,-99.99,,,-99.99,,2016-07-26 08:13:00,
2016-07-26 02:23:00,55.0,49.0,-100.00,North,-9999,0.0,4.0,80,-99.99,,,-99.99,,2016-07-26 08:23:00,
2016-07-26 02:34:00,54.0,49.0,-100.00,East,80,1.0,6.0,83,-99.99,,,-99.99,,2016-07-26 08:34:00,
2016-07-26 02:43:00,54.0,49.0,-100.00,East,80,1.0,6.0,83,-99.99,,,-99.99,,2016-07-26 08:43:00,
2016-07-26 02:53:00,52.0,49.0,-100.00,SE,125,2.0,4.0,90,-99.99,,,-99.99,,2016-07-26 08:53:00,
2016-07-26 03:03:00,52.0,49.0,-100.00,SE,125,2.0,4.0,90,-99.99,,,-99.99,,2016-07-26 09:03:00,
2016-07-26 03:12:00,52.0,49.0,-100.00,East,90,2.0,3.0,90,-99.99,,,-99.99,,2016-07-26 09:12:00,
2016-07-26 03:23:00,52.0,49.0,-100.00,East,90,2.0,3.0,90,-99.99,,,-99.99,,2016-07-26 09:23:00,
2016-07-26 04:10:00,52.0,48.0,-100.00,North,-9999,0.0,-999.0,85,-99.99,,,-99.99,,2016-07-26 10:10:00,
2016-07-26 04:20:00,51.0,47.0,-100.00,North,-9999,0.0,-999.0,84,-99.99,,,-99.99,,2016-07-26 10:20:00,
2016-07-26 04:40:00,52.0,48.0,-100.00,North,-9999,0.0,-999.0,86,-99.99,,,-99.99,,2016-07-26 10:40:00,
2016-07-26 04:51:00,52.0,48.0,-100.00,North,-9999,0.0,-999.0,86,-99.99,,,-99.99,,2016-07-26 10:51:00,
2016-07-26 05:11:00,49.0,47.0,-100.00,East,100,1.0,-999.0,91,-99.99,,,-99.99,,2016-07-26 11:11:00,
2016-07-26 05:21:00,50.0,45.0,-100.00,East,85,4.0,-999.0,85,-99.99,,,-99.99,,2016-07-26 11:21:00,
2016-07-26 05:54:00,49.0,47.0,-100.00,ESE,115,1.0,2.0,93,-99.99,,,-99.99,,2016-07-26 11:54:00,
2016-07-26 06:07:00,49.0,47.0,-100.00,ESE,115,1.0,2.0,93,-99.99,,,-99.99,,2016-07-26 12:07:00,
2016-07-26 06:13:00,47.0,46.0,-100.00,North,-9999,0.0,1.0,95,-99.99,,,-99.99,,2016-07-26 12:13:00,
2016-07-26 06:23:00,47.0,46.0,-100.00,North,-9999,0.0,1.0,95,-99.99,,,-99.99,,2016-07-26 12:23:00,
2016-07-26 06:34:00,47.0,46.0,-100.00,East,85,1.0,2.0,97,-99.99,,,-99.99,,2016-07-26 12:34:00,
2016-07-26 06:46:00,47.0,46.0,-100.00,East,85,1.0,2.0,97,-99.99,,,-99.99,,2016-07-26 12:46:00,
2016-07-26 06:56:00,47.0,46.0,-100.00,North,-9999,0.0,1.0,95,-99.99,,,-99.99,,2016-07-26 12:56:00,
2016-07-26 07:04:00,47.0,46.0,-100.00,North,-9999,0.0,1.0,95,-99.99,,,-99.99,,2016-07-26 13:04:00,
2016-07-26 07:14:00,49.0,46.0,-100.00,SE,135,1.0,2.0,90,-99.99,,,-99.99,,2016-07-26 13:14:00,
2016-07-26 07:23:00,49.0,46.0,-100.00,SE,135,1.0,2.0,90,-99.99,,,-99.99,,2016-07-26 13:23:00,
2016-07-26 07:37:00,49.0,46.0,-100.00,SE,130,1.0,2.0,90,-99.99,,,-99.99,,2016-07-26 13:37:00,
2016-07-26 07:47:00,51.0,46.0,-100.00,North,-9999,0.0,-999.0,83,-99.99,,,-99.99,,2016-07-26 13:47:00,
2016-07-26 07:56:00,51.0,46.0,-100.00,North,-9999,0.0,3.0,83,-99.99,,,-99.99,,2016-07-26 13:56:00,
2016-07-26 08:14:00,53.0,47.0,-100.00,ENE,75,1.0,2.0,80,-99.99,,,-99.99,,2016-07-26 14:14:00,
2016-07-26 08:23:00,53.0,47.0,-100.00,ENE,75,1.0,2.0,80,-99.99,,,-99.99,,2016-07-26 14:23:00,
2016-07-26 08:34:00,54.0,47.0,-100.00,SE,145,3.0,4.0,76,-99.99,,,-99.99,,2016-07-26 14:34:00,
2016-07-26 08:44:00,54.0,47.0,-100.00,SE,145,3.0,4.0,76,-99.99,,,-99.99,,2016-07-26 14:44:00,
2016-07-26 08:56:00,59.0,48.0,-100.00,SE,135,3.0,4.0,69,-99.99,,,-99.99,,2016-07-26 14:56:00,
2016-07-26 09:04:00,59.0,48.0,-100.00,SE,135,3.0,4.0,69,-99.99,,,-99.99,,2016-07-26 15:04:00,
2016-07-26 09:14:00,62.0,49.0,-100.00,SE,130,1.0,-999.0,61,-99.99,,,-99.99,,2016-07-26 15:14:00,
2016-07-26 09:23:00,62.0,49.0,-100.00,SE,130,1.0,-999.0,61,-99.99,,,-99.99,,2016-07-26 15:23:00,
2016-07-26 09:46:00,65.0,47.0,-100.00,South,190,1.0,-999.0,51,-99.99,,,-99.99,,2016-07-26 15:46:00,
2016-07-26 10:00:00,65.0,47.0,-100.00,South,190,1.0,-999.0,51,-99.99,,,-99.99,,2016-07-26 16:00:00,
2016-07-26 10:20:00,68.0,48.0,-100.00,North,-9999,0.0,-999.0,48,-99.99,,,-99.99,,2016-07-26 16:20:00,
2016-07-26 10:30:00,68.0,48.0,-100.00,North,-9999,-999.9,-999.0,48,-99.99,,,-99.99,,2016-07-26 16:30:00,
2016-07-26 11:11:00,69.0,46.0,-100.00,North,-9999,-999.9,-999.0,44,-99.99,,,-99.99,,2016-07-26 17:11:00,
2016-07-26 11:21:00,67.0,45.0,-100.00,SSW,195,6.0,-999.0,44,-99.99,,,-99.99,,2016-07-26 17:21:00,
2016-07-26 11:30:00,67.0,45.0,-100.00,SSW,195,6.0,-999.0,44,-99.99,,,-99.99,,2016-07-26 17:30:00,
2016-07-26 11:41:00,69.0,46.0,-100.00,South,190,-999.9,-999.0,44,-99.99,,,-99.99,,2016-07-26 17:41:00,
2016-07-26 12:21:00,74.0,45.0,-100.00,West,275,3.0,-999.0,36,-99.99,,,-99.99,,2016-07-26 18:21:00,
2016-07-26 12:31:00,74.0,45.0,-100.00,West,275,3.0,6.0,36,-99.99,,,-99.99,,2016-07-26 18:31:00,
2016-07-26 12:40:00,75.0,44.0,-100.00,NNE,20,3.0,7.0,33,-99.99,,,-99.99,,2016-07-26 18:40:00,
2016-07-26 12:46:00,81.0,44.0,-100.00,North,0,2.0,4.0,27,-99.99,,,-99.99,,2016-07-26 18:46:00,
2016-07-26 13:09:00,81.0,44.0,-100.00,North,0,2.0,4.0,27,-99.99,,,-99.99,,2016-07-26 19:09:00,
2016-07-26 13:35:00,83.0,43.0,-100.00,NNW,340,3.0,7.0,24,-99.99,,,-99.99,,2016-07-26 19:35:00,
2016-07-26 13:41:00,82.0,40.0,-100.00,NW,310,4.0,14.0,23,-99.99,,,-99.99,,2016-07-26 19:41:00,
2016-07-26 13:44:00,83.0,43.0,-100.00,NNW,340,3.0,7.0,24,-99.99,,,-99.99,,2016-07-26 19:44:00,
2016-07-26 14:03:00,83.0,41.0,-100.00,NW,310,7.0,16.0,22,-99.99,,,-99.99,,2016-07-26 20:03:00,
2016-07-26 14:13:00,82.0,40.0,-100.00,NW,310,4.0,14.0,23,-99.99,,,-99.99,,2016-07-26 20:13:00,
2016-07-26 14:23:00,82.0,40.0,-100.00,NW,310,4.0,14.0,23,-99.99,,,-99.99,,2016-07-26 20:23:00,
2016-07-26 14:34:00,82.0,40.0,-100.00,NW,310,4.0,14.0,23,-99.99,,,-99.99,,2016-07-26 20:34:00,
2016-07-26 14:55:00,86.0,40.0,-100.00,West,280,7.0,12.0,20,-99.99,,,-99.99,,2016-07-26 20:55:00,
2016-07-26 15:03:00,86.0,40.0,-100.00,West,280,7.0,12.0,20,-99.99,,,-99.99,,2016-07-26 21:03:00,
2016-07-26 15:13:00,87.0,40.0,-100.00,WNW,295,9.0,17.0,19,-99.99,,,-99.99,,2016-07-26 21:13:00,
2016-07-26 15:23:00,87.0,40.0,-100.00,WNW,295,9.0,17.0,19,-99.99,,,-99.99,,2016-07-26 21:23:00,
2016-07-26 15:26:00,88.0,41.0,-100.00,NW,305,-999.9,-999.0,19,-99.99,,,-99.99,,2016-07-26 21:26:00,
2016-07-26 15:42:00,88.0,38.0,-100.00,NNW,340,8.0,-999.0,17,-99.99,,,-99.99,,2016-07-26 21:42:00,
2016-07-26 15:50:00,88.0,38.0,-100.00,NNW,340,8.0,-999.0,17,-99.99,,,-99.99,,2016-07-26 21:50:00,
2016-07-26 16:02:00,88.0,41.0,-100.00,NW,305,6.0,-999.0,19,-99.99,,,-99.99,,2016-07-26 22:02:00,
2016-07-26 16:10:00,88.0,41.0,-100.00,NW,305,-999.9,-999.0,19,-99.99,,,-99.99,,2016-07-26 22:10:00,
2016-07-26 16:20:00,88.0,41.0,-100.00,NW,305,6.0,-999.0,19,-99.99,,,-99.99,,2016-07-26 22:20:00,
2016-07-26 16:51:00,81.0,45.0,-100.00,SSW,210,3.0,-999.0,28,-99.99,,,-99.99,,2016-07-26 22:51:00,
2016-07-26 17:11:00,85.0,44.0,-100.00,SSW,195,-999.9,-999.0,24,-99.99,,,-99.99,,2016-07-26 23:11:00,
2016-07-26 17:20:00,86.0,41.0,-100.00,South,180,7.0,12.0,21,-99.99,,,-99.99,,2016-07-26 23:20:00,
2016-07-26 17:31:00,86.0,41.0,-100.00,South,180,7.0,12.0,21,-99.99,,,-99.99,,2016-07-26 23:31:00,
2016-07-26 17:40:00,85.0,43.0,-100.00,SW,220,4.0,-999.0,23,-99.99,,,-99.99,,2016-07-26 23:40:00,
2016-07-26 17:41:00,85.0,43.0,-100.00,SSW,210,6.0,14.0,23,-99.99,,,-99.99,,2016-07-26 23:41:00,
2016-07-26 17:54:00,85.0,45.0,-100.00,South,190,4.0,24.0,25,-99.99,,,-99.99,,2016-07-26 23:54:00,
2016-07-26 18:06:00,85.0,45.0,-100.00,South,190,4.0,24.0,25,-99.99,,,-99.99,,2016-07-27 00:06:00,
2016-07-26 18:14:00,85.0,43.0,-100.00,SSW,210,6.0,14.0,23,-99.99,,,-99.99,,2016-07-27 00:14:00,
2016-07-26 18:24:00,85.0,43.0,-100.00,SSW,210,6.0,-999.0,23,-99.99,,,-99.99,,2016-07-27 00:24:00,
2016-07-26 18:34:00,85.0,43.0,-100.00,SSW,210,6.0,14.0,23,-99.99,,,-99.99,,2016-07-27 00:34:00,
2016-07-26 18:55:00,82.0,43.0,-100.00,WSW,240,3.0,7.0,25,-99.99,,,-99.99,,2016-07-27 00:55:00,
2016-07-26 19:07:00,82.0,43.0,-100.00,WSW,240,3.0,7.0,25,-99.99,,,-99.99,,2016-07-27 01:07:00,
2016-07-26 19:23:00,81.0,44.0,-100.00,SW,225,4.0,9.0,27,-99.99,,,-99.99,,2016-07-27 01:23:00,
2016-07-26 19:35:00,82.0,42.0,-100.00,SW,230,5.0,11.0,24,-99.99,,,-99.99,,2016-07-27 01:35:00,
2016-07-26 19:44:00,82.0,42.0,-100.00,SW,230,5.0,11.0,24,-99.99,,,-99.99,,2016-07-27 01:44:00,
2016-07-26 19:54:00,76.0,49.0,-100.00,WSW,255,6.0,12.0,38,-99.99,,,-99.99,,2016-07-27 01:54:00,
2016-07-26 20:03:00,76.0,49.0,-100.00,WSW,255,6.0,12.0,38,-99.99,,,-99.99,,2016-07-27 02:03:00,
2016-07-26 20:13:00,74.0,49.0,-100.00,SW,220,2.0,9.0,42,-99.99,,,-99.99,,2016-07-27 02:13:00,
2016-07-26 20:23:00,74.0,49.0,-100.00,SW,220,2.0,-999.0,42,-99.99,,,-99.99,,2016-07-27 02:23:00,
2016-07-26 20:33:00,74.0,46.0,-100.00,WSW,250,8.0,14.0,36,-99.99,,,-99.99,,2016-07-27 02:33:00,
2016-07-26 20:54:00,72.0,47.0,-100.00,West,265,10.0,27.0,41,-99.99,,,-99.99,,2016-07-27 02:54:00,
2016-07-26 21:03:00,72.0,47.0,-100.00,West,265,10.0,27.0,41,-99.99,,,-99.99,,2016-07-27 03:03:00,
2016-07-26 21:13:00,72.0,49.0,-100.00,East,100,6.0,12.0,44,-99.99,,,-99.99,,2016-07-27 03:13:00,
2016-07-26 21:23:00,72.0,49.0,-100.00,East,100,6.0,12.0,44,-99.99,,,-99.99,,2016-07-27 03:23:00,
2016-07-26 21:42:00,72.0,47.0,-100.00,ESE,105,7.0,-999.0,41,-99.99,,,-99.99,,2016-07-27 03:42:00,
2016-07-26 21:50:00,72.0,47.0,-100.00,ESE,105,7.0,-999.0,41,-99.99,,,-99.99,,2016-07-27 03:50:00,
2016-07-26 22:03:00,70.0,47.0,-100.00,ESE,120,-999.9,-999.0,44,-99.99,,,-99.99,,2016-07-27 04:03:00,
2016-07-26 22:10:00,70.0,47.0,-100.00,North,-9999,-999.9,-999.0,44,-99.99,,,-99.99,,2016-07-27 04:10:00,
2016-07-26 22:20:00,71.0,46.0,-100.00,East,95,4.0,-999.0,41,-99.99,,,-99.99,,2016-07-27 04:20:00,
2016-07-26 22:30:00,71.0,46.0,-100.00,East,95,-999.9,-999.0,41,-99.99,,,-99.99,,2016-07-27 04:30:00,
2016-07-26 22:42:00,70.0,46.0,-100.00,SE,130,-999.9,-999.0,43,-99.99,,,-99.99,,2016-07-27 04:42:00,
2016-07-26 23:13:00,66.0,48.0,-100.00,ENE,70,4.0,-999.0,52,-99.99,,,-99.99,,2016-07-27 05:13:00,